Time,TemperatureF,DewpointF,PressureIn,WindDirection,WindDirectionDegrees,WindSpeedMPH,WindSpeedGustMPH,Humidity,HourlyPrecipIn,Conditions,Clouds,dailyrainin,SoftwareType,DateUTC
2013-03-23 00:11:00,-999.0,-99.9,29.88,North,-999,-999.0,-999.0,-999,-99.99,,,0.00,weatherlink.com 1.10,2013-03-23 04:11:00,
2013-03-23 00:26:00,-999.0,-99.9,29.88,North,-999,-999.0,-999.0,-999,-99.99,,,0.00,weatherlink.com 1.10,2013-03-23 04:26:00,
2013-03-23 00:56:00,-999.0,-99.9,29.88,North,-999,-999.0,-999.0,-999,-99.99,,,0.00,weatherlink.com 1.10,2013-03-23 04:56:00,
2013-03-23 01:41:00,-999.0,-99.9,29.88,North,-999,-999.0,-999.0,-999,-99.99,,,0.00,weatherlink.com 1.10,2013-03-23 05:41:00,
2013-03-23 02:26:00,-999.0,-99.9,29.87,North,-999,-999.0,-999.0,-999,-99.99,,,0.00,weatherlink.com 1.10,2013-03-23 06:26:00,
2013-03-23 02:41:00,-999.0,-99.9,29.87,North,-999,-999.0,-999.0,-999,-99.99,,,0.00,weatherlink.com 1.10,2013-03-23 06:41:00,
2013-03-23 02:56:00,-999.0,-99.9,29.87,North,-999,-999.0,-999.0,-999,-99.99,,,0.00,weatherlink.com 1.10,2013-03-23 06:56:00,
2013-03-23 03:41:00,-999.0,-99.9,29.87,North,-999,-999.0,-999.0,-999,-99.99,,,0.00,weatherlink.com 1.10,2013-03-23 07:41:00,
2013-03-23 03:56:00,-999.0,-99.9,29.86,North,-999,-999.0,-999.0,-999,-99.99,,,0.00,weatherlink.com 1.10,2013-03-23 07:56:00,
2013-03-23 04:26:00,-999.0,-99.9,29.86,North,-999,-999.0,-999.0,-999,-99.99,,,0.00,weatherlink.com 1.10,2013-03-23 08:26:00,
2013-03-23 04:41:00,-999.0,-99.9,29.86,North,-999,-999.0,-999.0,-999,-99.99,,,0.00,weatherlink.com 1.10,2013-03-23 08:41:00,
2013-03-23 04:56:00,-999.0,-99.9,29.86,North,-999,-999.0,-999.0,-999,-99.99,,,0.00,weatherlink.com 1.10,2013-03-23 08:56:00,
2013-03-23 05:11:00,-999.0,-99.9,29.86,North,-999,-999.0,-999.0,-999,-99.99,,,0.00,weatherlink.com 1.10,2013-03-23 09:11:00,
2013-03-23 05:26:00,-999.0,-99.9,29.87,North,-999,-999.0,-999.0,-999,-99.99,,,0.00,weatherlink.com 1.10,2013-03-23 09:26:00,
2013-03-23 05:41:00,-999.0,-99.9,29.87,North,-999,-999.0,-999.0,-999,-99.99,,,0.00,weatherlink.com 1.10,2013-03-23 09:41:00,
2013-03-23 05:56:00,-999.0,-99.9,29.87,North,-999,-999.0,-999.0,-999,-99.99,,,0.00,weatherlink.com 1.10,2013-03-23 09:56:00,
2013-03-23 06:11:00,-999.0,-99.9,29.87,North,-999,-999.0,-999.0,-999,-99.99,,,0.00,weatherlink.com 1.10,2013-03-23 10:11:00,
2013-03-23 06:26:00,-999.0,-99.9,29.87,North,-999,-999.0,-999.0,-999,-99.99,,,0.00,weatherlink.com 1.10,2013-03-23 10:26:00,
2013-03-23 06:41:00,-999.0,-99.9,29.88,North,-999,-999.0,-999.0,-999,-99.99,,,0.00,weatherlink.com 1.10,2013-03-23 10:41:00,
2013-03-23 07:26:00,-999.0,-99.9,29.89,North,-999,-999.0,-999.0,-999,-99.99,,,0.00,weatherlink.com 1.10,2013-03-23 11:26:00,
2013-03-23 07:41:00,30.5,21.0,29.90,West,260,0.0,-999.0,69,-99.99,,,0.00,weatherlink.com 1.10,2013-03-23 11:41:00,
2013-03-23 07:56:00,30.6,22.0,29.91,West,281,4.0,-999.0,70,-99.99,,,0.00,weatherlink.com 1.10,2013-03-23 11:56:00,
2013-03-23 08:11:00,30.7,22.0,29.91,SSW,211,2.0,-999.0,70,-99.99,,,0.00,weatherlink.com 1.10,2013-03-23 12:11:00,
2013-03-23 08:41:00,32.1,24.0,29.92,NNW,345,3.0,-999.0,71,-99.99,,,0.00,weatherlink.com 1.10,2013-03-23 12:41:00,
2013-03-23 08:56:00,33.0,25.0,29.92,WNW,292,7.0,-999.0,72,-99.99,,,0.00,weatherlink.com 1.10,2013-03-23 12:56:00,
2013-03-23 09:11:00,34.3,26.0,29.92,NW,323,3.0,-999.0,72,-99.99,,,0.00,weatherlink.com 1.10,2013-03-23 13:11:00,
2013-03-23 09:56:00,34.6,27.0,29.92,West,267,2.0,-999.0,73,-99.99,,,0.00,weatherlink.com 1.10,2013-03-23 13:56:00,
2013-03-23 10:11:00,35.5,27.0,29.93,West,267,6.0,-999.0,72,-99.99,,,0.00,weatherlink.com 1.10,2013-03-23 14:11:00,
2013-03-23 10:41:00,36.0,27.0,29.93,WNW,290,5.0,-999.0,71,-99.99,,,0.00,weatherlink.com 1.10,2013-03-23 14:41:00,
2013-03-23 10:56:00,36.7,27.0,29.93,West,274,12.0,-999.0,69,-99.99,,,0.00,weatherlink.com 1.10,2013-03-23 14:56:00,
2013-03-23 11:11:00,36.7,27.0,29.93,WNW,296,6.0,-999.0,69,-99.99,,,0.00,weatherlink.com 1.10,2013-03-23 15:11:00,
2013-03-23 11:26:00,37.7,28.0,29.93,WNW,294,6.0,-999.0,68,-99.99,,,0.00,weatherlink.com 1.10,2013-03-23 15:26:00,
2013-03-23 11:56:00,37.6,27.0,29.94,SW,232,6.0,-999.0,66,-99.99,,,0.01,weatherlink.com 1.10,2013-03-23 15:56:00,
2013-03-23 12:26:00,37.7,26.0,29.94,West,276,10.0,-999.0,64,-99.99,,,0.01,weatherlink.com 1.10,2013-03-23 16:26:00,
2013-03-23 12:41:00,38.1,26.0,29.95,West,263,10.0,-999.0,63,-99.99,,,0.01,weatherlink.com 1.10,2013-03-23 16:41:00,
2013-03-23 13:12:00,37.4,25.0,29.95,NW,315,5.0,-999.0,61,-99.99,,,0.01,weatherlink.com 1.10,2013-03-23 17:12:00,
2013-03-23 13:26:00,39.0,26.0,29.95,WNW,290,7.0,-999.0,60,-99.99,,,0.01,weatherlink.com 1.10,2013-03-23 17:26:00,
2013-03-23 13:56:00,38.0,26.0,29.94,WNW,296,4.0,-999.0,62,-99.99,,,0.01,weatherlink.com 1.10,2013-03-23 17:56:00,
2013-03-23 14:11:00,39.3,26.0,29.94,West,276,12.0,-999.0,60,-99.99,,,0.02,weatherlink.com 1.10,2013-03-23 18:11:00,
2013-03-23 14:26:00,37.4,26.0,29.94,West,281,16.0,-999.0,63,-99.99,,,0.02,weatherlink.com 1.10,2013-03-23 18:26:00,
2013-03-23 14:41:00,37.6,26.0,29.94,West,272,7.0,-999.0,63,-99.99,,,0.02,weatherlink.com 1.10,2013-03-23 18:41:00,
2013-03-23 14:56:00,38.4,26.0,29.94,WNW,300,6.0,-999.0,61,-99.99,,,0.02,weatherlink.com 1.10,2013-03-23 18:56:00,
2013-03-23 15:41:00,37.4,26.0,29.94,West,279,2.0,-999.0,64,-99.99,,,0.02,weatherlink.com 1.10,2013-03-23 19:41:00,
2013-03-23 15:56:00,38.0,26.0,29.94,WNW,288,3.0,-999.0,62,-99.99,,,0.02,weatherlink.com 1.10,2013-03-23 19:56:00,
2013-03-23 16:26:00,37.6,25.0,29.95,West,279,8.0,-999.0,62,-99.99,,,0.02,weatherlink.com 1.10,2013-03-23 20:26:00,
2013-03-23 16:41:00,37.4,26.0,29.95,WNW,288,12.0,-999.0,63,-99.99,,,0.02,weatherlink.com 1.10,2013-03-23 20:41:00,
2013-03-23 16:56:00,38.0,26.0,29.95,NW,308,8.0,-999.0,62,-99.99,,,0.02,weatherlink.com 1.10,2013-03-23 20:56:00,
2013-03-23 17:11:00,38.2,26.0,29.95,North,355,4.0,-999.0,61,-99.99,,,0.02,weatherlink.com 1.10,2013-03-23 21:11:00,
2013-03-23 17:26:00,38.2,25.0,29.95,WNW,286,10.0,-999.0,60,-99.99,,,0.02,weatherlink.com 1.10,2013-03-23 21:26:00,
2013-03-23 17:41:00,38.7,25.0,29.95,NW,306,6.0,-999.0,59,-99.99,,,0.02,weatherlink.com 1.10,2013-03-23 21:41:00,
2013-03-23 17:56:00,39.9,27.0,29.96,West,262,3.0,-999.0,60,-99.99,,,0.02,weatherlink.com 1.10,2013-03-23 21:56:00,
2013-03-23 18:11:00,39.1,26.0,29.96,West,279,5.0,-999.0,60,-99.99,,,0.02,weatherlink.com 1.10,2013-03-23 22:11:00,
2013-03-23 18:26:00,37.9,26.0,29.97,WNW,296,4.0,-999.0,62,-99.99,,,0.02,weatherlink.com 1.10,2013-03-23 22:26:00,
2013-03-23 18:41:00,37.6,26.0,29.96,WNW,301,10.0,-999.0,63,-99.99,,,0.02,weatherlink.com 1.10,2013-03-23 22:41:00,
2013-03-23 18:56:00,37.2,26.0,29.96,North,349,4.0,-999.0,64,-99.99,,,0.02,weatherlink.com 1.10,2013-03-23 22:56:00,
2013-03-23 19:11:00,37.2,26.0,29.97,NW,311,4.0,-999.0,64,-99.99,,,0.02,weatherlink.com 1.10,2013-03-23 23:11:00,
2013-03-23 19:25:00,37.1,26.0,29.97,WNW,292,0.0,-999.0,65,-99.99,,,0.02,weatherlink.com 1.10,2013-03-23 23:25:00,
2013-03-23 19:41:00,36.9,26.0,29.97,WNW,299,0.0,-999.0,65,-99.99,,,0.02,weatherlink.com 1.10,2013-03-23 23:41:00,
2013-03-23 19:56:00,36.8,26.0,29.98,WNW,290,2.0,-999.0,66,-99.99,,,0.02,weatherlink.com 1.10,2013-03-23 23:56:00,
2013-03-23 20:41:00,36.7,27.0,29.99,West,259,2.0,-999.0,67,-99.99,,,0.03,weatherlink.com 1.10,2013-03-24 00:41:00,
2013-03-23 20:56:00,36.7,27.0,29.99,West,274,0.0,-999.0,68,-99.99,,,0.03,weatherlink.com 1.10,2013-03-24 00:56:00,
2013-03-23 21:26:00,-999.0,-99.9,29.99,North,-999,-999.0,-999.0,-999,-99.99,,,0.03,weatherlink.com 1.10,2013-03-24 01:26:00,
2013-03-23 21:41:00,-999.0,-99.9,29.99,North,-999,-999.0,-999.0,-999,-99.99,,,0.03,weatherlink.com 1.10,2013-03-24 01:41:00,
2013-03-23 21:56:00,-999.0,-99.9,29.99,North,-999,-999.0,-999.0,-999,-99.99,,,0.03,weatherlink.com 1.10,2013-03-24 01:56:00,
2013-03-23 22:10:00,-999.0,-99.9,29.99,North,-999,-999.0,-999.0,-999,-99.99,,,0.03,weatherlink.com 1.10,2013-03-24 02:10:00,
2013-03-23 22:26:00,-999.0,-99.9,29.99,North,-999,-999.0,-999.0,-999,-99.99,,,0.03,weatherlink.com 1.10,2013-03-24 02:26:00,
2013-03-23 22:41:00,-999.0,-99.9,29.99,North,-999,-999.0,-999.0,-999,-99.99,,,0.03,weatherlink.com 1.10,2013-03-24 02:41:00,
2013-03-23 22:56:00,-999.0,-99.9,29.99,North,-999,-999.0,-999.0,-999,-99.99,,,0.03,weatherlink.com 1.10,2013-03-24 02:56:00,
2013-03-23 23:25:00,-999.0,-99.9,29.99,North,-999,-999.0,-999.0,-999,-99.99,,,0.03,weatherlink.com 1.10,2013-03-24 03:25:00,
2013-03-23 23:41:00,-999.0,-99.9,29.99,North,-999,-999.0,-999.0,-999,-99.99,,,0.03,weatherlink.com 1.10,2013-03-24 03:41:00,